Regional Weather Roundup
Issued by NWS Charleston, SC

Current Version | Previous Version | Graphics & Text | Print | Product List | Glossary On
Versions: 1 2 3 4 5 6 7 8 9 10 11 12 13 14 15 16 17 18 19 20 21 22 23 24 25 26 27 28 29 30 31 32 33 34 35 36 37 38 39 40 41 42 43 44 45 46 47 48 49 50
000 ASUS42 KCHS 091227 RWRCHS REGIONAL WEATHER ROUNDUP NATIONAL WEATHER SERVICE CHARLESTON SC 700 AM EST FRI DEC 09 2016 NOTE: "FAIR" INDICATES FEW OR NO CLOUDS BELOW 12,000 FEET WITH NO SIGNIFICANT WEATHER AND/OR OBSTRUCTIONS TO VISIBILITY. NOT ALL STATIONS ARE QUALITY CONTROLLED. USE DATA WITH CAUTION... ESPECIALLY DEWPOINT OBSERVATIONS. SCZ027-030-031-034>040-042>050-091300- ...SOUTHEAST SOUTH CAROLINA... CITY SKY/WX TMP DP RH WIND PRES REMARKS N CHARLESTON PTCLDY 35 28 75 N5 30.36R WCI 31 6HR MIN TEMP: 35; 6HR MAX TEMP: 46; WATERFRONT PRK N/A 43 28 55 N12 30.34R MOUNT PLEASANT NOT AVBL JOHNS ISLAND NOT AVBL PINOPOLIS N/A 43 28 56 N15 30.28R MONCKS CORNER FAIR 39 16 38 NE8 30.38R WCI 34 SUMMERVILLE FAIR 34 32 93 CALM 30.39R BEAUFORT MCAS PTCLDY 40 26 57 NW7 30.38R WCI 35 6HR MIN TEMP: 40; 6HR MAX TEMP: 47; BEAUFORT ARPT FAIR 39 27 60 N9 30.37R WCI 33 HILTON HEAD IS CLEAR 43 25 49 N12 30.37R WALTERBORO SUNNY 34 32 93 CALM 30.40R ALLENDALE FAIR 32 28 86 CALM 30.38R ...SOUTHERN MIDLANDS AND PEE DEE... CITY SKY/WX TMP DP RH WIND PRES REMARKS GEORGETOWN FAIR 34 25 69 N5 30.37 WCI 30 KINGSTREE FAIR 32 23 69 CALM 30.38R ORANGEBURG CLEAR 35 18 49 N6 30.37R WCI 30 6HR MIN TEMP: 35; 6HR MAX TEMP: 41; BARNWELL NOT AVBL AIKEN FAIR 30 18 59 NW3 30.41R MANNING FAIR 30 27 86 CALM 30.38R COLUMBIA CLEAR 35 16 45 NW3 30.38R 6HR MIN TEMP: 35; 6HR MAX TEMP: 42; SUMTER CLEAR 32 21 63 NW5 30.35R WCI 27 6HR MIN TEMP: 32; 6HR MAX TEMP: 40; FLORENCE CLEAR 32 20 61 N3 30.37R 6HR MIN TEMP: 32; 6HR MAX TEMP: 41; MYRTLE BEACH CLEAR N/A N/A N/A NW9 30.37R N MYRTLE BEACH CLEAR 34 24 67 N5 30.35R WCI 30 6HR MIN TEMP: 34; 6HR MAX TEMP: 41; $$ GAZ063-065-086>088-099>101-113>116-118-119-134>141-150-091300- ...SOUTHEAST GEORGIA... CITY SKY/WX TMP DP RH WIND PRES REMARKS SAVANNAH ARPT CLOUDY 38 26 62 N7 30.38R WCI 33 6HR MIN TEMP: 38; 6HR MAX TEMP: 46; HUNTER AAF CLEAR 40 29 66 NW8 30.35R WCI 34 6HR MIN TEMP: 40; 6HR MAX TEMP: 46; FORT STEWART MOCLDY 38 25 60 CALM 30.36R 6HR MIN TEMP: 38; 6HR MAX TEMP: 46; STATESBORO CLEAR 35 28 75 NW6 30.40R WCI 30 SYLVANIA SUNNY N/A N/A N/A NW3 30.40R CLAXTON FAIR 36 28 74 W3 30.41R ...CSRA...CENTRAL AND FAR SOUTHEAST GEORGIA... CITY SKY/WX TMP DP RH WIND PRES REMARKS THOMSON CLEAR 30 26 86 CALM 30.44R AUGUSTA-BUSH CLEAR 30 22 72 CALM 30.39R 6HR MIN TEMP: 30; 6HR MAX TEMP: 42; AUGUSTA-DANIEL CLEAR 33 21 61 NW5 30.39R WCI 29 SWAINSBORO FAIR 32 25 74 NW6 30.41R WCI 26 VIDALIA CLEAR 34 30 86 N5 30.41R WCI 30 EASTMAN FAIR 32 17 53 CALM 30.44R HAZLEHURST FAIR 37 26 66 CALM 30.40R ALMA PTCLDY 38 24 57 N5 30.39R WCI 34 6HR MIN TEMP: 38; 6HR MAX TEMP: 45; WAYCROSS PTCLDY 40 29 62 N7 30.40R WCI 36 JESUP FAIR 41 32 70 N7 30.39R BAXLEY FAIR 37 30 75 N3 30.40R BRUNSWICK PTCLDY 43 32 65 NW7 30.38R SAINT SIMONS CLEAR 43 27 53 N9 30.36R 6HR MIN TEMP: 43; 6HR MAX TEMP: 49; $$ SCZ027-028-034-036>038-045-046-048>050-GAZ119-141-091300- ...LAKE AND SUPPLEMENTAL COASTAL OBSERVATIONS... STATION/POSITION TIME TEMP WIND PRES WAVE SWELL AIR SEA DIR/SP/G HT/PER HT/PER/DIR (UTC) (F) (DEG/KT/KT) (MB) (FT/S) (FT/S/D) WINYAH BAY 1145 38 360/ 3 1027.0R LAKE MURRAY 1150 33 CALM / 3 1028.1R ACE BASIN NERRS 1145 39 350/ 2 1028.0R FORT PULASKI 1200 42 61 350/ 12/ 16 1028.5 SAPELO ISLAND 1200 43 340/ 9 1028.0 $$ ANZ835-935-AMZ111-154-330-350-352-354-370-450-454-472-091300- ...C-MAN AND BUOY OBSERVATIONS... STATION/POSITION TIME TEMP WIND PRES WAVE SWELL AIR SEA DIR/SP/G HT/PER HT/PER/DIR (UTC) (F) (DEG/KT/KT) (MB) (FT/S) (FT/S/D) BUOY 41004 1150 52 73 360/ 19/ 25 1025.4R 5/ 6 BUOY 41008 1150 50 63 360/ 17/ 19 1027.0R 4/ 5 2/ 70/11 FOLLY BEACH CMAN 1200 43 360/ 13/ 17 1028.2R CAPERS NEARSHORE 1108 45 60 10/ 17/ 21 1026.7R FRIPP NEARSHORE 1208 46 61 10/ 16/ 21 1028.0R STATION/POSITION TIME TEMP WIND PRES WAVE SWELL AIR SEA DIR/SP/G HT/PER HT/PER/DIR (UTC) (F) (DEG/KT/KT) (MB) (FT/S) (FT/S/D) 5E ST. MARYS GA 1200 65 N/A 4/ 4 FRYING PAN BUOY 1210 48 73 350/ 19/ 27 1026.3 BUOY 41025 1150 45 75 360/ 19/ 25 1023.8R 6/ 6 2/ 60/11 CAPE LOOKOUT NC 1200 38 340/ 20/ 25 1025.4R BUOY 41002 1150 63 74 350/ 17/ 21 1021.0R 8/ 7 3/160/12 BUOY 41010 NOT AVBL ST AUGUSTINE FL 1200 48 65 320/ 10/ 13 1027.7R $$

USA.gov is the U.S. government's official web portal to all federal, state and local government web resources and services.